Voltar ao catálogo

NIMBUS 2 DEB

LostLEO
NORAD 38181·DEBRIS·🇺🇸 United States

Lançado May 15, 1966 de Vandenberg Space Force Base

Loading…

Próximas Passagens (próximas 24 horas)

TLE

ObsoletoSource: Space-Track

Época: Aug 9, 2023, 13:16 UTC

1 38181U 66040AZ  23221.55337811  .00009989  00000-0  10471-1 0  9999
2 38181 100.6634 324.1594 0052973 217.9799 161.0701 13.74597221106656

Acompanhe NIMBUS 2 DEB em tempo real com AllMySat

Download on the App Store